Regional Weather Roundup
Issued by NWS

Home | Current Version | Previous Version | Graphics & Text | Print | Product List | Glossary On
Versions: 1 2 3 4 5 6 7 8 9 10 11 12 13 14 15 16 17 18 19 20 21 22 23 24 25 26 27 28 29 30 31 32 33 34 35 36 37 38 39 40 41 42 43 44 45 46 47 48 49 50
908
ASUS43 KTOP 250608
RWRKS

WEATHER ROUNDUP FOR KANSAS
NATIONAL WEATHER SERVICE GOODLAND KS
100 AM CDT TUE APR 25 2017

NOTE:  "FAIR" INDICATES FEW OR NO CLOUDS BELOW 12,000 FEET WITH NO
SIGNIFICANT WEATHER AND/OR OBSTRUCTIONS TO VISIBILITY.

KSZ001>006-013>018-027>032-041>047-250700-
NORTHWEST KANSAS

CITY           SKY/WX    TMP DP  RH WIND       PRES   REMARKS
GOODLAND       CLOUDY    55  44  66 NE10      29.50R
6HR MIN TEMP:  53; 6HR MAX TEMP:  72;

HAYS           CLOUDY    61  53  75 E8        29.45F
HILL CITY      CLOUDY    60  46  59 NE12      29.48F
6HR MIN TEMP:  58; 6HR MAX TEMP:  78;

RUSSELL        CLOUDY    62  52  69 SE14      29.45F
6HR MIN TEMP:  62; 6HR MAX TEMP:  78;

$$

KSZ061>065-074>080-084>089-250700-
SOUTHWEST KANSAS

CITY           SKY/WX    TMP DP  RH WIND       PRES   REMARKS
DODGE CITY     PTCLDY    58  50  75 SE17      29.40F
6HR MIN TEMP:  58; 6HR MAX TEMP:  77;

ELKHART          N/A     55  41  59 NW9         N/A
GARDEN CITY    CLOUDY    57  48  72 NE9       29.42F
6HR MIN TEMP:  57; 6HR MAX TEMP:  77;

GREAT BEND     PTCLDY    63  51  65 SE16      29.45F
PRATT          MOCLDY    59  47  64 SE17G23   29.44F
6HR MIN TEMP:  59; 6HR MAX TEMP:  72;

$$

KSZ066>073-081>083-090>101-250700-
SOUTHEAST KANSAS

CITY           SKY/WX    TMP DP  RH WIND       PRES   REMARKS
CHANUTE        MOCLDY    61  47  59 S13       29.59F
6HR MIN TEMP:  60; 6HR MAX TEMP:  71;

COFFEYVILLE    CLOUDY    59  48  67 S8        29.60F
6HR MIN TEMP:  59; 6HR MAX TEMP:  71;

HUTCHINSON     CLOUDY    62  49  62 SE13      29.49F
6HR MIN TEMP:  62; 6HR MAX TEMP:  73;

MEDICINE LODGE   N/A     61  48  62 SE14G23   29.44F
NEWTON         CLOUDY    59  49  69 SE14      29.53F
PARSONS        PTCLDY    62  46  55 S7        29.61F
6HR MIN TEMP:  61; 6HR MAX TEMP:  71;

WICHITA INTL   CLOUDY    63  48  58 SE16      29.50F
6HR MIN TEMP:  63; 6HR MAX TEMP:  71;

WICHITA JABRA  CLOUDY    62  49  62 SE15      29.52F
6HR MIN TEMP:  62; 6HR MAX TEMP:  72;

WICHITA MCCONL CLOUDY    62  48  58 S15       29.52F
WINFIELD       MOCLDY    62  49  62 SE10G20   29.55F
6HR MIN TEMP:  62; 6HR MAX TEMP:  70;

$$

KSZ007>012-019>026-033>040-048>060-102>105-250700-
NORTHEAST KANSAS

CITY           SKY/WX    TMP DP  RH WIND       PRES   REMARKS
CONCORDIA      CLOUDY    62  53  72 SW5       29.52S
6HR MIN TEMP:  58; 6HR MAX TEMP:  73;

EMPORIA        CLOUDY    61  49  64 S17       29.55F
6HR MIN TEMP:  61; 6HR MAX TEMP:  70;

LAWRENCE       CLOUDY    64  46  52 SE8       29.57S
6HR MIN TEMP:  60; 6HR MAX TEMP:  72;

MANHATTAN      MOCLDY    64  48  56 S9        29.51F
6HR MIN TEMP:  64; 6HR MAX TEMP:  75;

MARYSVILLE     MOCLDY    57  48  72 S5        29.52F
OLATHE IND     PTCLDY    61  45  55 S10       29.59S
6HR MIN TEMP:  59; 6HR MAX TEMP:  71;

OLATHE EXE     CLOUDY    60  46  59 S8        29.59S
6HR MIN TEMP:  58; 6HR MAX TEMP:  70;

SALINA         CLOUDY    63  51  65 SE12      29.50F
6HR MIN TEMP:  63; 6HR MAX TEMP:  75;

TOPEKA BILLARD CLOUDY    63  48  58 S9        29.54F
6HR MIN TEMP:  63; 6HR MAX TEMP:  72;

TOPEKA FORBES  PTCLDY    63  47  55 S12       29.55S
6HR MIN TEMP:  63; 6HR MAX TEMP:  72;

$$




USA.gov is the U.S. government's official web portal to all federal, state and local government web resources and services.